Regional Weather Roundup
Issued by NWS Wakefield, VA

Home | Current Version | Previous Version | Text Only | Print | Product List | Glossary Off
Versions: 1 2 3 4 5 6 7 8 9 10 11 12 13 14 15 16 17 18 19 20 21 22 23 24 25 26 27 28 29 30 31 32 33 34 35 36 37 38 39 40 41 42 43 44 45 46 47 48 49 50

402
ASUS41 KAKQ 230815
RWRAKQ

REGIONAL WEATHER ROUNDUP
NATIONAL WEATHER SERVICE WAKEFIELD VA
400 AM EDT TUE MAY 23 2017

Note: "fair" indicates few or no clouds below 12,000 feet with no
significant weather and/or obstructions to visibility. * = Denotes
station may not report precipitation (e.g., rain,snow,etc.),
thunder or fog.

VAZ042-051-052>054-056-230900-
NORTHERN VIRGINIA

CITY           SKY/WX    TMP DP  RH WIND       PRES   REMARKS
WASH NATIONAL  CLOUDY    63  59  87 N9        29.95S
DULLES         CLOUDY    60  49  66 N6        29.96S
FORT BELVOIR   CLOUDY    63  53  71 NW6       29.94S
QUANTICO       CLOUDY    64  53  67 N10       29.95S
FREDERICKSBRG* CLOUDY    64  55  72 N5        29.94S
STAFFORD*      PTCLDY    61  54  77 N7        29.98F
WARRENTON      CLOUDY    61  54  77 N3        29.95S
CULPEPER*      CLOUDY    61  56  82 N5        29.96F
MANASSAS*        N/A     60  51  72 N8        29.96S
LEESBURG*      CLOUDY    59  52  77 CALM      29.98R
WINCHESTER     PTCLDY    52  46  82 CALM      29.97F
FRONT ROYAL*   MOSUNNY   52  52 100 CALM      29.96F
LURAY*         CLOUDY    54  54 100 CALM      29.97F
$$

VAZ048-049-060>072-079>083-230900-
CENTRAL AND SOUTH CENTRAL VIRGINIA

CITY           SKY/WX    TMP DP  RH WIND       PRES   REMARKS
RICHMOND       CLOUDY    65  65 100 CALM      29.92F
CHESTERFIELD*  CLOUDY   N/A N/A N/A E3        29.92F
PETERSBURG*    CLOUDY    64  64  98 NE3       29.92F FOG
HANOVER        CLOUDY    64  62  93 CALM      29.94F FOG
TAPPAHANNOCK*  FOG       65  65 100 CALM      29.94F VSB 1/4
QUINTON*       CLOUDY    62  62 100 CALM      29.93S
CHARLOTTSVILLE CLOUDY    64  57  78 NE8       29.94F
GORDONSVILLE*  PTSUNNY   62  56  82 NE5       29.94F
ORANGE*        CLOUDY    61  52  72 E7        29.94F
LOUISA*        CLOUDY    66  61  82 NE3       29.93F
BUMPASS*       PTSUNNY   64  57  79 N3        29.94S
FARMVILLE*     FOG       68  68 100 NE5       29.90F VSB 1/2
CREWE*         CLOUDY    64  60  87 N3        29.91F
FORT PICKETT*  FAIR      65  61  88 W6        29.91F
CHASE CITY*    CLOUDY    67  65  94 CALM      29.90F
CLARKSVILLE*   CLOUDY    64  64 100 CALM      29.90F
SOUTH HILL*    CLOUDY    66  66 100 CALM      29.96F
LAWRENCEVILLE* CLOUDY    66  65  97 CALM      29.90F
EMPORIA*         N/A     63  63 100 CALM      29.92S
$$

VAZ088>098-230900-
SOUTHEAST VIRGINIA

CITY           SKY/WX    TMP DP  RH WIND       PRES   REMARKS
NORFOLK        CLOUDY    67  65  93 N3        29.91F
VIRGINIA BEACH CLOUDY    63  61  93 CALM      29.90F FOG
NORFOLK NAVAL  CLOUDY    66  64  93 CALM      29.93S
WEST POINT*    CLOUDY    63  62  99 CALM      29.94S VSB 3/4
SALUDA*        CLOUDY    64  64 100 N5        29.93S
NEWPORT NEWS   FOG       64  64 100 CALM      29.92F VSB 1/4
LANGLEY AFB    CLOUDY    65  65 100 CALM      29.91F
FORT EUSTIS    CLOUDY    65  63  94 CALM      29.90S
WILLIAMSBURG*  CLOUDY    66  66 100 CALM      29.93S
HR EXEC AP*    CLOUDY    63  61  94 N3        29.90F VSB 1
FRANKLIN*      CLOUDY    64  64  99 CALM      29.90F
US460-WAKEFLD  CLOUDY    65  65 100 CALM      29.91F FOG
$$

VAZ020-022-025-037-045-230900-
WEST CENTRAL AND SOUTHWEST VIRGINIA

CITY           SKY/WX    TMP DP  RH WIND       PRES   REMARKS
STAUNTON*      MOCLDY    57  51  81 CALM      29.98F
WAYNESBORO*    CLOUDY    57  54  89 W3        29.97F
HOT SPRINGS VA CLOUDY    54  41  62 E7        30.01F
LYNCHBURG      CLOUDY    63  60  90 N5        29.93F
DANVILLE       LGT RAIN  65  65 100 E3        29.91F
SOUTH BOSTON*  CLOUDY    66  65  95 CALM      29.90F
MARTINSVILLE   RAIN      61  60  97 CALM      29.95S
ROANOKE        CLOUDY    60  56  86 NW3       29.96F
BLACKSBURG     CLOUDY    58  56  91 CALM      29.99S
DUBLIN*        CLOUDY    59  53  79 CALM      29.97F
MARION*        CLOUDY    59  56  89 E5        29.99F
HILLSVILLE*    LGT RAIN  58  57  94 CALM      29.96F
RICHLANDS*     CLOUDY    58  54  86 CALM      29.94F
WISE*          CLOUDY    55  55 100 CALM      29.94F
ABINGDON*      CLOUDY    62  58  87 E5        29.92F
$$

MDZ021>025-VAZ099-100-230900-
SOUTHERN MARYLAND AND THE DELMARVA PENINSULA

CITY           SKY/WX    TMP DP  RH WIND       PRES   REMARKS
PATUXENT RIVER CLOUDY    64  64 100 NW5       29.93S
BAY BRIDGE APT CLOUDY    63  63 100 NW5       29.94R FOG
LEONARDTOWN    CLOUDY    63  61  94 CALM      29.95S
DOVER          CLEAR     59  59 100 NW3       29.91S FOG
GEORGETOWN     PTCLDY    63  60  90 NW3       29.92F
EASTON         FOG       60  58  95 CALM      29.97R VSB 1/4
CAMBRIDGE      NOT AVBL
SALISBURY      MOCLDY    63  63 100 N9        29.92S
OCEAN CITY     CLOUDY    63  62  97 N7        29.92S
WALLOPS ISLAND CLOUDY    65  65 100 NW5       29.92S
ACCOMACK*      CLOUDY    66  52  62 N7        29.92S
$$

NCZ012>017-030>032-230900-
NORTH CENTRAL AND EASTERN NORTH CAROLINA

CITY           SKY/WX    TMP DP  RH WIND       PRES   REMARKS
ROANOKE RAPIDS LGT RAIN  64  64 100 CALM      29.90F
RALEIGH        CLOUDY    67  67 100 CALM      29.90F
ELIZABETH CITY CLOUDY    69  69 100 CALM      29.91F
AHOSKIE*         N/A     66  65  98 CALM      29.91S
EDENTON*       CLOUDY    72  69  88 CALM      29.91F
CURRITUCK*     CLOUDY   N/A N/A N/A CALM      29.91F
KILL DEVIL HLS NOT AVBL
MANTEO         CLOUDY    70  69  95 W6        29.91S
CAPE HATTERAS  LGT RAIN  72  69  90 SW8       29.91F
TARBORO*       NOT AVBL
GOLDSBORO      CLOUDY    68  68 100 CALM      29.87F
WASHINGTON     CLOUDY    68  67  98 CALM      29.90S
GREENVILLE     CLOUDY    68  68 100 CALM      29.92F
NEW BERN       CLOUDY    67  67 100 S3        29.91S
WILMINGTON     LGT RAIN  68  67  96 CALM      29.89F
$$

VAZ048-230900-
ELSEWHERE

CITY           SKY/WX    TMP DP  RH WIND       PRES   REMARKS
HARRISBURG PA  CLOUDY    55  55 100 NW3       29.96R
BALTIMORE      MOCLDY    58  58 100 CALM      29.94S FOG
ANNAPOLIS      FOG       63  63 100 N6        29.94R VSB 1/2
ANDREWS AFB    CLOUDY    61  61 100 N5        29.94R
PHILADELPHIA   CLOUDY    61  58  90 N3        29.93S
HENDERSON NC   RAIN      64  63  96 CALM      29.91F
GREENSBORO     HVY RAIN  66  66 100 E5        29.89F FOG
ROCKY MOUNT    CLOUDY    67  67 100 CALM      29.89F
$$

VAZ100-230900-
MARINE

STATION/POSITION TIME  TEMP    WIND        PRES    WAVE   SWELL
                       AIR SEA DIR/SP/G            HT/PER HT/PER
                 (UTC) (F)     (DEG/KT/KT) (MB)    (FT/S) (FT/S)
CAPE MAY NJ      0748   63 61   10/  4/  9 1012.2F
LEWES DE         0748   63 61  350/  8/  9 1012.8F
15NM E FENWICK I 0750   59 57  350/  4/  6 1013.3R   3/ 7   3/ 7
OCEAN-CITY-INLET 0748   63 63  360/  9/ 12 1013.2S
WACHAPREAGUE VA  0748   66 67  290/  2/  6 1012.9R
THOMAS POINT MD  0800   62 65  340/  5/  6   N/A
GOOSES REEF MD   0750   64      20/  6/  6 1014.5R
COVE POINT MD    0748   64      40/  7/ 10 1014.2R
SOLOMONS ISLAND  0748   64 67  350/  4/  4   N/A
BISHOPS HEAD MD  0748   64 68   20/  6/  8 1013.9R
PINEY POINT MD   0742          340/  3/  4   N/A
POTOMAC MD       0750   65      20/  8/ 10 1012.6R
CAMBRIDGE MD     0742   64 69                N/A
LEWISETTA VA     0748   64 69   10/  4/  6 1013.5R
RAPPAHANNOCK LGT 0742          350/ 11/ 11 1013.7S
STINGRAY PT      0750   65      10/  8/ 10 1013.2S
YORK RVR RNG VA  0748   68      60/  5/  6 1012.4F
YORKTOWN VA      0748   66 69   60/  1/  3 1012.7S
JAMESTOWN VA     0750   66      20/  2/  4   N/A
DOMINION TERM VA 0748   67      40/  2/  2 1013.0F
KIPTOPEKE VA     0748      66  360/  7/  9   N/A
CHES BAY BRIDGE  0748   67 68   30/  6/  7 1012.5F
CAPE HENRY VA    0748   66      10/  8/ 10   N/A
WILLOUBY STN VA  0748   68      10/  3/  3 1012.8F
S CRANEY ISL VA  0748   68      40/  4/  4 1012.7F
CAPE HENRY BUOY  0742      64                N/A     2/ 8
1ST LANDING BUOY 0750   67                 1013.0F
CAPE CHARLES BUO 0751      62                N/A     2/ 8
64NM E OF VA BCH 0750   64 65  310/  4/  4 1013.4S   3/ 8   3/ 8
DUCK PIER NC     0748   71 64  280/  4/  5 1012.3F
44100 DUCK FRF   0705      66                N/A     3/ 8
44056 DUCK FRF   0730      65                N/A     2/ 8
OREGON INLET NC  0742   74 74  210/ 10/ 11 1012.4F
HATTERAS NC      0748   72 75  190/  4/  7 1012.4F
DIAMOND SHLS NC  0750   75 78  190/ 19/ 23 1012.6F   4/ 5   2/ 8
CAPE LOOKOUT NC  0800   73     220/  3/  4 1012.1F
$$




USA.gov is the U.S. government's official web portal to all federal, state and local government web resources and services.